Location: Unspecified
(0.0000°N, 0.0000°E)
Time: 00:55:43
(UTC+00:00)

deb Explorer IX - All Passes

Search period start: 30 July 2014 00:00
Search period end: 09 August 2014 00:00
Orbit: 556 x 1221 km, 38.8° (Epoch: 29 July)

Date Brightness Start Highest point End Pass type
(mag) Time Alt. Az. Time Alt. Az. Time Alt. Az.
30 Jul - 00:16:46 10° W 00:21:53 20° SW 00:26:34 10° S night (unlit)
30 Jul - 09:32:32 10° SSW 09:36:10 28° SE 09:40:05 10° ENE daylight
30 Jul - 11:20:34 10° W 11:24:22 27° NW 11:28:39 10° NNE daylight
30 Jul - 20:35:19 10° NNW 20:41:43 27° NE 20:47:54 10° E visible
30 Jul - 22:23:03 10° NW 22:30:57 74° SW 22:38:02 10° SE visible
31 Jul - 00:15:59 10° WSW 00:19:47 15° SW 00:23:22 10° S night (unlit)
31 Jul - 09:30:05 10° SSW 09:34:04 44° SE 09:38:23 10° ENE daylight
31 Jul - 11:19:21 10° W 11:22:25 18° NW 11:25:44 10° N daylight
31 Jul - 20:32:32 10° NNW 20:39:38 35° NE 20:46:28 10° ESE visible
31 Jul - 22:21:01 10° WNW 22:28:44 56° SW 22:35:44 10° SE visible
01 Aug - 00:16:39 10° SW 00:17:44 10° SW 00:18:48 10° SSW night (unlit)
01 Aug - 09:27:51 10° SW 09:31:58 74° SE 09:36:27 10° NE daylight
01 Aug - 11:18:58 10° NW 11:20:29 11° NW 11:22:03 10° NNW daylight
01 Aug - 20:29:56 10° NNW 20:37:28 47° NE 20:44:47 10° ESE visible
01 Aug - 22:19:09 10° WNW 22:26:31 42° SW 22:33:18 10° SSE visible
02 Aug - 07:41:08 10° SSE 07:41:44 10° SE 07:42:20 10° SE daylight
02 Aug - 09:25:47 10° WSW 09:29:53 66° NW 09:34:17 10° NE daylight
02 Aug - 18:42:06 10° N 18:45:51 14° NE 18:49:38 10° ENE visible
02 Aug - 20:27:27 10° NW 20:35:16 62° NE 20:42:53 10° ESE visible
02 Aug - 22:17:29 10° W 22:24:18 32° SW 22:30:41 10° SSE visible
03 Aug - 07:37:01 10° S 07:39:42 16° SE 07:42:22 10° E daylight
03 Aug - 09:23:56 10° WSW 09:27:49 39° NW 09:31:55 10° NNE daylight
03 Aug - 18:38:39 10° N 18:43:47 19° NE 18:49:03 10° E visible
03 Aug - 20:25:06 10° NW 20:33:02 81° NE 20:40:50 10° SE visible
03 Aug - 22:16:04 10° W 22:22:07 24° SW 22:27:53 10° S visible
04 Aug - 07:34:06 10° SSW 07:37:38 26° SE 07:41:06 10° E daylight
04 Aug - 09:22:20 10° W 09:25:45 25° NW 09:29:18 10° NNE daylight
04 Aug - 18:35:36 10° NNW 18:41:39 25° NE 18:47:55 10° E visible
04 Aug - 20:22:53 10° NW 20:30:47 78° SW 20:38:37 10° SE visible
04 Aug - 22:15:00 10° WSW 22:19:59 18° SW 22:24:48 10° S visible
05 Aug - 07:31:32 10° SSW 07:35:33 41° SE 07:39:27 10° ENE daylight
05 Aug - 09:21:09 10° WNW 09:23:41 16° NW 09:26:18 10° N daylight
05 Aug - 18:32:48 10° NNW 18:39:27 33° NE 18:46:26 10° ESE visible
05 Aug - 20:20:49 10° WNW 20:28:32 60° SW 20:36:14 10° SE visible
05 Aug - 22:14:33 10° WSW 22:17:54 13° SW 22:21:12 10° SSW visible
06 Aug - 07:29:10 10° SW 07:33:26 71° SE 07:37:31 10° NE daylight
06 Aug - 18:30:10 10° NNW 18:37:13 44° NE 18:44:42 10° ESE visible
06 Aug - 20:18:53 10° WNW 20:26:17 45° SW 20:33:43 10° SSE visible
07 Aug - 05:41:31 10° SSE 05:42:54 11° SE 05:44:14 10° SE visible
07 Aug - 07:27:00 10° SW 07:31:18 69° NW 07:35:23 10° NE daylight
07 Aug - 16:43:29 10° NNE 16:45:50 12° NE 16:48:16 10° ENE daylight
07 Aug - 18:27:39 10° NW 18:34:56 59° NE 18:42:45 10° ESE visible
07 Aug - 20:17:09 10° WNW 20:24:03 34° SW 20:31:03 10° SSE visible
08 Aug - 05:37:44 10° S 05:40:53 18° SE 05:43:48 10° E visible
08 Aug - 07:25:02 10° WSW 07:29:08 41° NW 07:33:01 10° NNE daylight
08 Aug - 16:39:34 10° N 16:43:42 16° NE 16:48:05 10° ENE daylight
08 Aug - 18:25:17 10° NW 18:32:38 77° NE 18:40:37 10° SE visible
08 Aug - 20:15:39 10° W 20:21:52 26° SW 20:28:11 10° SSE visible
